This is the latest recevied weather packets stored in our database for station/object K8RRT. If no packets are shown the sender has not sent any weather packets the latest 10 day(s).
| Time | Temp. | Humidity | Pressure | Rain* | Wind** | Luminosity | Snow |
|---|---|---|---|---|---|---|---|
| 1788179855 | 21.67° C | 99% | 1016.1 hPa | 0 mm | - | 71 W/m² | - |
| 1788179554 | 21.11° C | 99% | 1016.2 hPa | 0 mm | - | 80 W/m² | - |
| 1788179248 | 21.11° C | 99% | 1016.4 hPa | 0 mm | - | 84 W/m² | - |
| 1788178944 | 21.11° C | 99% | 1016.3 hPa | 0 mm | - | 74 W/m² | - |
| 1788178643 | 21.11° C | 99% | 1016.3 hPa | 0 mm | - | 65 W/m² | - |
| 1788178340 | 21.11° C | 99% | 1016.1 hPa | 0 mm | - | 57 W/m² | - |
| 1788178035 | 21.11° C | 99% | 1016.3 hPa | 0 mm | - | 52 W/m² | - |
| 1788177729 | 20.56° C | 99% | 1016.4 hPa | 0 mm | - | 44 W/m² | - |
| 1788177425 | 20.56° C | 99% | 1016.2 hPa | 0 mm | - | 38 W/m² | - |
| 1788177121 | 20.56° C | 99% | 1016.4 hPa | 0 mm | - | 30 W/m² | - |
| 1788176820 | 20.56° C | 99% | 1016 hPa | 0 mm | - | 26 W/m² | - |
| 1788176520 | 20.56° C | 99% | 1016.2 hPa | 0 mm | - | 24 W/m² | - |
| 1788176215 | 20° C | 99% | 1016.1 hPa | 0 mm | - | 20 W/m² | - |
| 1788175910 | 20° C | 99% | 1015.9 hPa | 0 mm | - | 15 W/m² | - |
| 1788175609 | 20° C | 99% | 1015.8 hPa | 0 mm | - | 11 W/m² | - |
| 1788175304 | 20° C | 99% | 1015.7 hPa | 0 mm | - | 8 W/m² | - |
| 1788175000 | 20° C | 99% | 1015.7 hPa | 0 mm | - | 7 W/m² | - |
| 1788174696 | 20° C | 99% | 1015.8 hPa | 0 mm | - | 4 W/m² | - |
| 1788174391 | 20° C | 99% | 1015.7 hPa | 0 mm | - | 2 W/m² | - |
| 1788174086 | 20° C | 99% | 1015.7 hPa | 0 mm | - | 0 W/m² | - |
| 1788173785 | 20° C | 99% | 1015.6 hPa | 0 mm | - | 0 W/m² | - |
| 1788173480 | 20° C | 99% | 1015.8 hPa | 0 mm | - | 0 W/m² | - |
| 1788173176 | 20° C | 99% | 1015.7 hPa | 0 mm | - | 0 W/m² | - |
| 1788172872 | 20° C | 99% | 1015.6 hPa | 0 mm | - | 0 W/m² | - |
| 1788172567 | 19.44° C | 99% | 1015.6 hPa | 0 mm | - | 0 W/m² | - |
* Rain latest hour (hover to see other rain measurements)
** Current wind speed in m/s (hover to see current wind gust speed)